EHI
0 0 0 0 0 0 0 0 0 0 0 0 0 0 0 0 0 0 0 0 0 0 0 0 0 0 0 0 0 0 0 0 0 0 0 0 0 0 0 0 0 0 0
0 0 0 0 0 0 0 0 0 0 0 0 0 0 0 0 0 0 0 0 0 0 0 0 0 0 0 0 0 0 0 0 0 0 0 0 0 0 0 0 0 0 0
0 0 0 0 0 0 0 0 0 0 0 0 0 0 0 0 0 0 0 0 0 0 0 0 0 0 0 0 0 0 0 0 0 0 0 0 0 0 0 0 0 0 0
0 0 0 0 0 0 0 0 0 0 0 0 0 0 0 0 0 0 0 0 0 0 0 0 0 0 0 0 0 0 0 0 0 0 0 0 0 0 0 0 0 0 0
0 0 0 0 0 0 0 0 0 0 0 0 0 0 0 0 0 0 0 0 0 0 0 0 0 0 0 0 0 0 0 0 0 0 0 0 0 0 0 0 0 0 0
0 0 0 0 0 0 0 0 0 0 0 0 0 0 0 0 0 0 0 0 0 0 0 0 0 0 0 0 0 0 0 0 0 0 0 0 0 0 0 0 0 0 0
0 0 0 0 0 0 0 0 0 0 0 0 0 0 0 0 0 0 0 0 0 0 0 0 0 0 0 0 0 0 0 0 0 0 0 0 0 0 0 0 0 0 0
0 0 0 0 0 0 0 0 0 0 0 0 0 0 0 0 0 0 0 0 0 0 0 0 0 0 0 0 0 0 0 0 0 0 0 0 0 0 0 0 0 0 0
0 0 0 0 0 0 0 0 0 0 0 0 0 0 0 0 0 0 0 0 0 0 0 0 0 0 0 0 0 0 0 0 0 0 0 0 0 0 0 0 0 0 0
0 0 0 0 0 0 0 0 0 0 0 0 0 0 0 0 0 0 0 0 0 0 0 0 0 0 0 0 0 0 0 0 0 0 0 0 0 0 0 0 0 0 0
0 0 0 0 0 0 0 0 0 0 0 0 0 0 0 0 0 0 0 0 0 0 0 0 0 0 0 0 0 0 0 0 0 0 0 0 0 0 0 0 0 0 0
0 0 0 0 0 0 0 0 0 0 0 0 0 0 0 0 0 0 0 0 0 0 0 0 0 0 0 0 0 0 0 0 0 0 0 0 0 0 0 0 0 0 0
0 0 0 0 0 0 0 0 0 0 0 0 0 0 0 0 0 0 0 0 0 0 0 0 0 0 0 0 0 0 0 0 0 0 0 0 0 0 0 0 0 0 0
0 0 0 0 0 0 0 0 0 0 0 0 0 0 0 0 0 0 0 0 0 0 0 0 0 0 0 0 0 0 0 0 0 0 0 0 0 0 0 0 0 0 0
0 0 0 0 0 0 0 0 0 0 0 0 0 0 0 0 0 0 0 0 0 0 0 0 0 0 0 0 0 0 0 0 0 0 0 0 0 0 0 0 0 0 0
0 0 0 0 0 0 0 0 0 0 0 0 0 0 0 0 0 0 0 0 0 0 0 0 0 0 0 0 0 0 0 0 0 0 0 0 0 0 0 0 0 0 0
0 0 0 0 0 0 0 0 0 0 0 0 0 0 0 0 0 0 0 0 0 0 0 0 0 0 0 0 0 0 0 0 0 0 0 0 0 0 0 0 0 0 0
0 0 0 0 0 0 0 0 0 0 0 0 0 0 0 0 0 0 0 0 0 0 0 0 0 0 0 0 0 0 0 0 0 0 0 0 0 0 0 0 0 0 0
0 0 0 0 0 0 0 0 0 0 0 0 0 0 0 0 0 0 0 0 0 0 0 0 0 0 0 0 0 0 0 0 0 0 0 0 0 0 0 0 0 0 0
0 0 0 0 0 0 0 0 0 0 0 0 0 0 0 0 0 0 0 0 0 0 0 0 0 0 0 0 0 0 0 0 0 0 0 0 0 0 0 0 0 0 0
0 0 0 0 0 0 0 0 0 0 0 0 0 0 0 0 0 0 0 0 0 0 0 0 0 0 0 0 0 0 0 0 0 0 0 0 0 0 0 0 0 0 0
0 0 0 0 0 0 0 0 0 0 0 0 0 0 0 0 0 0 0 0 0 0 0 0 0 0 0 0 0 0 0 0 0 0 0 0 0 0 0 0 0 0 0
0 0 0 0 0 0 0 0 0 0 0 0 0 0 0 0 0 0 0 0 0 0 0 0 0 0 0 0 0 0 0 0 0 0 0 0 0 0 0 0 0 0 0
0 0 0 0 0 0 0 0 0 0 0 0 0 0 0 0 0 0 0 0 0 0 0 0 0 0 0 0 0 0 0 0 0 0 0 0 0 0 0 0 0 0 0
0 0 0 0 0 0 0 0 0 0 0 0 0 0 0 0 0 0 0 0 0 0 0 0 0 0 0 0 0 0 0 0 0 0 0 0 0 0 0 0 0 0 0
0 0 0 0 0 0 0 0 0 0 0 0 0 0 0 0 0 0 0 0 0 0 0 0 0 0 0 0 0 0 0 0 0 0 0 0 0 0 0 0 0 0 0
Wind_Speed
4 4 4 5 5 4 4 4 4 4 3 2 2 2 1 1 2 2 2 3 3 3 2 2 2 2 2 2 2 2 2 3 3 2 3 3 2 1 1 2 2 3 3
4 4 5 5 5 5 5 4 4 4 3 2 2 1 2 1 1 1 2 2 2 3 2 2 2 2 2 2 3 2 2 2 2 2 2 3 2 2 2 2 2 2 3
8 7 6 6 5 5 5 5 4 4 3 3 3 2 2 1 1 1 1 2 2 2 2 2 1 1 1 1 2 2 1 1 2 1 1 1 2 3 2 1 2 2 2
7 7 7 7 7 6 5 4 4 4 4 4 4 4 2 1 1 0 0 1 2 2 2 2 1 1 1 1 1 2 1 0 1 1 0 1 1 2 3 2 2 3 3
7 7 7 7 6 5 5 5 4 4 4 4 4 4 2 1 1 0 1 1 1 1 2 2 1 1 1 2 1 2 2 1 1 1 1 1 1 1 2 4 4 3 2
6 5 5 5 4 5 4 4 5 4 4 4 4 4 3 2 1 0 0 1 1 1 1 2 1 1 1 2 2 1 2 1 1 1 1 1 1 1 2 4 5 5 4
6 5 5 5 5 6 5 5 5 4 4 4 4 4 4 3 3 2 1 1 1 1 1 2 1 1 1 2 2 1 2 2 2 2 2 2 2 2 3 4 5 6 5
4 5 5 6 6 6 6 6 5 4 4 4 4 3 3 2 2 2 2 2 1 2 1 1 2 2 1 1 1 2 2 2 2 3 3 2 2 2 3 3 4 5 4
3 3 3 4 4 5 5 6 6 4 4 4 3 3 3 2 2 2 1 1 1 1 1 1 2 2 2 1 1 2 2 2 2 3 3 3 2 2 3 3 3 4 6
2 2 2 3 3 3 3 3 4 4 3 3 3 2 3 3 2 2 2 1 2 1 2 2 2 2 2 2 1 2 2 2 3 3 2 3 3 2 3 3 3 4 5
2 2 2 2 2 2 3 2 3 3 3 3 3 2 2 2 2 2 2 2 2 2 2 2 2 2 2 2 2 2 3 3 3 3 3 4 3 3 3 3 3 4 4
2 2 2 2 2 2 2 2 2 3 2 3 2 2 2 1 2 2 2 2 2 2 2 2 2 3 3 2 3 4 3 4 4 4 4 5 4 4 4 4 4 5 5
2 2 2 2 2 2 2 1 2 2 2 2 2 2 2 2 2 2 2 2 2 2 2 2 3 3 3 3 4 4 5 5 5 5 5 5 5 6 5 5 5 5 5
2 2 1 1 1 1 1 1 1 1 1 2 2 2 2 2 2 2 2 2 2 2 2 3 3 4 4 5 5 5 5 5 5 5 6 6 6 7 6 6 6 5 6
1 1 1 1 1 1 0 0 0 1 1 1 1 1 2 1 1 2 2 2 2 3 3 3 4 4 4 5 6 6 6 5 5 5 5 6 8 9 8 6 5 5 5
3 2 1 1 1 1 1 1 1 1 1 1 1 1 1 1 2 2 2 2 2 3 3 4 4 4 5 8 10 8 5 4 5 5 5 6 7 9 10 11 11 10 7
2 2 2 2 2 1 1 1 2 1 1 1 1 1 1 2 2 2 2 3 3 3 3 4 4 5 7 10 10 10 5 3 5 5 5 5 6 8 6 9 11 11 12
2 2 2 2 1 1 1 1 1 1 1 1 2 2 2 2 2 2 3 3 3 3 4 4 5 5 7 10 11 10 4 4 5 5 6 6 6 7 8 7 6 7 7
2 2 2 2 1 1 1 1 1 1 1 2 2 2 2 3 3 3 4 3 3 3 4 4 4 5 7 10 11 9 3 4 5 6 6 6 6 10 12 6 6 7 7
0 1 1 1 1 1 1 1 1 1 2 3 3 3 3 3 4 4 4 3 3 4 4 5 4 5 6 10 11 10 3 4 5 5 6 8 9 11 11 6 5 7 7
1 0 1 1 1 1 1 1 2 3 3 3 3 3 3 3 4 3 3 3 3 3 4 5 5 5 7 9 10 10 4 4 5 5 4 5 10 12 11 8 5 8 7
1 0 0 1 1 1 1 2 3 3 2 2 3 3 3 3 3 2 3 3 3 3 4 4 5 4 5 7 9 11 10 8 5 5 4 6 11 11 10 7 8 10 8
1 1 0 1 1 1 1 2 3 2 2 3 3 3 3 3 3 3 3 3 3 3 4 4 4 4 4 5 10 11 10 10 6 5 9 10 10 9 6 8 9 7 3
1 1 0 1 2 2 2 2 3 2 2 3 3 3 3 3 3 3 3 3 3 3 4 4 4 5 4 4 5 5 5 7 6 5 7 9 8 6 6 6 4 3 3
2 1 1 2 3 2 2 3 2 1 2 3 3 3 3 3 3 3 3 4 4 5 5 4 4 5 5 7 10 7 5 4 4 4 2 2 2 2 3 3 2 2 3
2 2 2 3 3 2 3 3 2 2 2 3 3 3 3 3 3 3 4 6 6 9 9 8 7 6 8 10 10 10 10 9 7 3 2 2 2 3 3 3 3 3 3
Wind_Direction
202 170 166 157 144 139 138 141 132 126 119 109 113 109 88 65 50 44 42 36 30 31 41 31 20 18 24 14 11 5 5 5 357 357 339 324 319 36 41 26 28 28 21
179 174 164 157 159 160 160 156 151 141 138 135 134 134 127 108 87 52 45 35 34 28 38 34 17 8 16 18 15 21 6 358 13 13 348 335 338 11 6 6 23 20 15
191 186 178 174 170 174 175 172 165 151 146 133 111 90 81 73 58 33 24 14 28 28 22 22 12 1 20 10 356 8 20 356 353 22 36 343 316 320 311 350 11 12 2
193 188 182 179 181 184 174 170 169 157 148 142 141 142 146 155 195 210 320 2 26 15 12 10 2 352 359 353 339 5 325 320 323 332 352 260 268 295 312 318 345 349 336
192 191 187 184 179 174 169 169 165 158 153 152 156 153 151 158 142 113 49 14 10 4 5 355 360 343 338 336 336 337 330 299 258 278 291 286 287 251 264 293 314 322 312
192 188 180 165 165 163 164 162 164 160 157 157 160 164 164 156 141 120 24 353 345 342 356 353 346 331 324 315 309 303 307 304 276 265 263 257 256 261 265 283 299 303 303
180 178 174 172 173 171 172 170 167 166 165 165 171 176 174 171 182 200 213 258 299 311 314 336 315 300 292 296 304 301 296 287 277 260 262 262 258 263 266 272 289 294 298
175 181 183 178 178 178 176 174 174 174 171 175 181 178 169 170 189 209 214 225 245 266 279 309 313 300 289 299 298 290 287 288 279 284 274 267 268 265 264 267 280 292 291
174 177 173 173 175 178 181 179 175 175 179 182 177 174 174 175 186 203 216 219 241 269 283 290 293 297 285 278 273 277 281 282 278 276 279 273 271 264 264 267 260 266 284
153 156 163 166 165 170 169 164 167 175 180 175 177 179 182 186 190 194 214 234 251 267 278 287 283 286 282 268 262 276 276 277 279 280 283 282 278 274 273 268 269 261 264
164 161 154 145 135 131 135 139 151 157 169 175 171 176 184 180 182 205 218 224 241 254 262 270 275 277 281 271 261 267 266 264 274 279 277 279 279 277 274 272 271 268 263
143 129 125 116 118 126 127 133 145 150 168 172 165 176 180 176 196 225 233 224 236 249 255 261 268 275 281 277 260 261 265 259 265 271 275 280 282 280 277 272 271 270 266
108 100 101 117 129 137 139 136 142 142 142 152 159 170 185 199 217 234 245 240 238 249 260 261 262 269 272 269 265 255 255 255 258 262 263 269 272 275 274 272 269 268 271
150 142 126 125 130 135 138 148 144 136 132 140 166 189 204 216 227 237 245 247 244 248 252 263 263 265 269 269 267 267 262 258 262 262 261 262 261 265 267 269 265 265 267
175 167 164 166 147 104 92 203 187 149 143 152 189 222 225 220 236 248 251 255 256 260 259 265 270 274 269 260 258 256 259 256 259 264 264 264 269 273 273 273 270 266 264
209 196 188 183 196 204 248 276 253 205 155 178 229 248 232 236 251 256 257 263 265 268 268 266 269 273 275 276 277 273 262 257 258 265 270 273 276 283 289 292 289 284 278
216 210 215 216 224 231 235 240 253 228 186 218 246 252 252 260 264 264 264 262 263 262 266 266 264 267 272 279 281 280 277 255 264 266 269 275 278 289 280 285 291 290 290
240 223 212 226 241 231 246 254 271 221 214 238 253 256 255 262 269 264 262 262 261 259 262 266 262 266 273 283 285 286 279 259 264 268 265 266 271 274 276 272 276 276 278
239 220 207 211 200 200 221 227 267 250 236 248 254 259 261 263 265 263 263 268 264 266 262 261 258 262 277 285 286 288 269 268 267 269 268 267 263 275 285 284 280 285 287
244 203 173 153 180 217 193 206 259 258 259 259 259 263 262 259 258 258 263 267 262 265 271 275 267 264 270 281 287 291 267 272 271 270 269 277 280 283 289 280 269 278 283
327 284 156 192 214 201 188 250 257 260 268 277 274 272 266 264 261 257 259 259 267 274 273 275 275 267 270 281 288 292 281 267 270 273 273 274 286 291 292 292 274 278 291
342 354 195 278 268 213 211 261 269 281 288 286 285 278 273 272 272 255 262 261 258 265 270 274 280 271 271 281 283 288 290 288 274 273 272 273 286 292 296 294 290 298 303
303 304 225 288 293 256 232 257 282 294 294 290 286 284 283 278 273 253 257 262 251 257 269 268 275 280 276 275 286 289 290 290 284 273 281 289 296 299 297 294 298 304 299
292 302 254 280 289 287 286 274 283 288 282 282 285 284 280 280 276 268 258 257 255 259 268 269 271 276 278 275 274 270 274 280 282 280 284 293 300 303 300 300 302 292 274
302 287 258 267 279 288 294 297 291 275 282 284 280 281 276 272 273 271 260 262 250 250 263 260 260 270 274 278 285 286 277 269 268 283 273 282 291 292 291 287 282 280 283
293 286 280 280 285 291 294 295 286 266 264 279 283 278 272 270 273 277 289 282 282 286 289 291 291 287 291 302 306 308 308 307 302 299 273 277 276 274 279 285 286 282 280